• MPC Preparation (Info)

  • MPEC 2013-L06 : 2013 KM6

    The following Minor Planet Electronic Circular may be linked-to from your own Web pages, but must not otherwise be redistributed electronically.

    A form allowing access to any MPEC is at the bottom of this page.


    Read MPEC 2013-L05 Read MPEC 2013-L07


    M.P.E.C. 2013-L06                                Issued 2013 June 2, 11:33 UT
    
         The Minor Planet Electronic Circulars contain information on unusual
             minor planets and routine data on comets.  They are published
       on behalf of Commission 20 of the International Astronomical Union by the
              Minor Planet Center, Smithsonian Astrophysical Observatory,
                              Cambridge, MA 02138, U.S.A.
    
                 Prepared using the Tamkin Foundation Computer Network
    
                                  MPC@CFA.HARVARD.EDU
                URL https://www.minorplanetcenter.net/    ISSN 1523-6714
    
                                       2013 KM6
    
    Observations:
         K13K06M* C2013 05 31.51455 18 00 10.639+08 21 43.25         19.9 rLEL006F51
         K13K06M  C2013 05 31.54833 18 00 14.714+08 25 35.67         19.7 iLEL006F51
         K13K06M  C2013 05 31.55936 18 00 16.038+08 26 51.00         20.1 iLEL006F51
         K13K06M |C2013 06 01.20598 18 01 47.39 +09 39 56.4          20.4 VuEL006807
         K13K06M |C2013 06 01.20846 18 01 47.68 +09 40 13.0          20.1 VuEL006807
         K13K06M |C2013 06 01.21095 18 01 47.97 +09 40 29.2          20.2 VuEL006807
         K13K06M  C2013 06 01.40563 18 02 12.21 +10 00 42.2          19.2 RtEL006H01
         K13K06M  C2013 06 01.41095 18 02 12.82 +10 01 16.5          19.3 RtEL006H01
         K13K06M  C2013 06 01.41843 18 02 13.69 +10 02 04.6          19.3 RtEL006H01
         K13K06M  C2013 06 01.43553 18 02 15.66 +10 03 54.8          19.0 RtEL006H01
         K13K06M KC2013 06 02.07333 18 03 39.49 +11 10 48.0                qEL006J95
         K13K06M KC2013 06 02.09371 18 03 41.80 +11 12 54.0                qEL006J95
    
    Observer details:
    807 Cerro Tololo.  Observers T. Linder, R. Holmes.  0.41-m f/11
        Ritchey-Chretien + CCD.
    F51 Pan-STARRS 1, Haleakala.  Observers N. Primak, A. Schultz, S. Watters,
        T. Goggia.  Measurer PS1 Science Consortium.  1.8-m Ritchey-Chretien
        + CCD.
    H01 Magdalena Ridge Observatory, Socorro.  Observers W. H. Ryan, E. V. Ryan.
        Measurer W. H. Ryan.  2.4-m f/8.9 reflector + CCD.
    J95 Great Shefford.  Observer P. Birtwhistle.  0.40-m f/6.0 Schmidt-Cassegrain
        + CCD.
    
    Orbital elements:
    2013 KM6                                                 Earth MOID = 0.1194 AU
    Epoch 2013 Apr. 18.0 TT = JDT 2456400.5                 MPC
    M 354.40180              (2000.0)            P               Q
    n   0.20198237     Peri.  355.81497     -0.54175657     +0.78033694
    a   2.8769153      Node   241.09460     -0.76044791     -0.61335218
    e   0.6070387      Incl.   20.90514     -0.35807653     +0.12195639
    P   4.88           H   22.3           G   0.15           U   7
    Residuals in seconds of arc
    130531 F51  0.0   0.2-    130601 807  0.0   0.2+    130601 H01  0.0   0.1-
    130531 F51  0.1+  0.2+    130601 807  0.0   0.0     130601 H01  0.1-  0.0
    130531 F51  0.1-  0.0     130601 H01  0.1-  0.1+    130602 J95  0.1-  0.2-
    130601 807  0.0   0.1-    130601 H01  0.1-  0.1+    130602 J95  0.1+  0.2+
    
    Ephemeris:
    2013 KM6                 a,e,i = 2.88, 0.61, 21                  q = 1.1305
    Date    TT    R. A. (2000) Decl.     Delta      r     Elong.  Phase     V
    2013 05 03    14 58 12.8 -61 13 39   0.1811  1.1418   134.3    39.2    20.4
    ...
    2013 05 18    17 07 49.0 -28 39 38   0.1278  1.1309   157.8    19.7    19.1
    ...
    2013 05 26    17 44 20.6 -04 17 31   0.1396  1.1379   151.8    24.9    19.5
    ...
    2013 06 01    18 01 18.4 +09 16 37   0.1649  1.1489   142.3    32.7    20.1
    2013 06 02    18 03 30.3 +11 03 43   0.1701  1.1512   140.9    33.7    20.2
    2013 06 03    18 05 33.1 +12 43 24   0.1754  1.1536   139.7    34.7    20.3
    ...
    2013 06 09    18 15 12.2 +20 27 12   0.2109  1.1708   133.7    38.8    20.8
    ...
    2013 06 17    18 23 07.6 +26 25 25   0.2639  1.2003   129.2    41.0    21.4
    ...
    2013 07 02    18 30 36.4 +30 22 15   0.3715  1.2731   126.5    39.9    22.3
    
    A. U. Tomatic                (C) Copyright 2013 MPC           M.P.E.C. 2013-L06
    

    Read MPEC 2013-L05 Read MPEC 2013-L07


    MPEC number:

    Enter an MPEC number in one of the following forms:

    • 1997-B01 (the full form)
    • J97B01 (the packed version of the full form)
    • B01 (the abbreviated form)